Location: Unspecified
(0.0000°N, 0.0000°E)
Time: 01:00:30
(UTC+00:00)

Transit 2A Rocket - Pass Details

Date: 18 December 2018
Orbit: 586 x 918 km, 66.7° (Epoch: 16 January)

Event Time Altitude Azimuth Distance (km) Brightness Sun altitude
Rises 04:53:51 0° 162° (SSE) 2,810 8.6 -14.3°
Reaches altitude 10° 04:58:00 10° 122° (ESE) 1,908 8.5 -13.4°
Maximum altitude 04:58:54 11° 110° (ESE) 1,873 8.5 -13.2°
Drops below altitude 10° 04:59:49 10° 98° (E) 1,915 8.4 -13.0°
Sets 05:04:00 0° 58° (ENE) 2,854 8.5 -12.0°
